User: anonymous   Login
Location: Unspecified
(0.0000°N, 0.0000°E)
Time: 12:45:30
(UTC+00:00)
Language:

Skynet 4E - Orbit

View from above orbital plane
View from above orbital plane
View from above satellite
View from above satellite

Ground track
Ground track

The orbit data is extracted from the following two-line orbital elements,

1 25639U 99009B   18200.24877347 -.00000052 +00000-0 +00000-0 0  9993
2 25639 010.4460 025.6500 0003943 083.3135 276.3352 01.00270520022416
Epoch (UTC): 19 July 2018 05:58:14
Eccentricity: 0.0003943
inclination: 10.4460°
perigee height: 35770 km
apogee height: 35803 km
right ascension of ascending node: 25.6500°
argument of perigee: 83.3135°
revolutions per day: 1.00270520
mean anomaly at epoch: 276.3352°
orbit number at epoch: 2241

The dashed part of the orbit path shows where the satellite is in the earth's shadow,  

DLR